ABX1054 KATL-KBOS

Flight info

Callsign ABX1054
Flight time N/A
Altitude 39000
Route PLMMR3 BURGG Q22 RBV Q419 JFK ROBUC3
Aircraft A333/H-SDE3GHIJ2J3J5M1RVWXY/LB2D1

Departure

Time 2026-05-05 22:49
Airport Hartsfield Jackson Atlanta International Airport (KATL)

Arrival

Time N/A
Airport Boston Logan International Airport (KBOS)
Time Latitude Longitude Altitude Speed Heading
2026-05-05 22:03 33.65155 -84.42717 1010 ft 0 kts 180°
2026-05-05 22:31 33.65156 -84.42717 1010 ft 2 kts 180°
2026-05-05 22:31 33.65181 -84.42720 1010 ft 4 kts 156°
2026-05-05 22:31 33.65200 -84.42739 1010 ft 4 kts 112°
2026-05-05 22:32 33.65205 -84.42770 1010 ft 4 kts 88°
2026-05-05 22:32 33.65204 -84.42790 1010 ft 1 kts 90°
2026-05-05 22:35 33.65204 -84.42785 1010 ft 1 kts 90°
2026-05-05 22:35 33.65204 -84.42770 1010 ft 2 kts 90°
2026-05-05 22:36 33.65204 -84.42745 1010 ft 4 kts 90°
2026-05-05 22:36 33.65204 -84.42709 1010 ft 5 kts 90°
2026-05-05 22:36 33.65203 -84.42664 1010 ft 6 kts 91°
2026-05-05 22:36 33.65190 -84.42615 1010 ft 6 kts 122°
2026-05-05 22:37 33.65158 -84.42595 1010 ft 5 kts 165°
2026-05-05 22:37 33.65124 -84.42591 1010 ft 6 kts 175°
2026-05-05 22:37 33.65087 -84.42575 1010 ft 6 kts 146°
2026-05-05 22:37 33.65069 -84.42534 1010 ft 6 kts 103°
2026-05-05 22:38 33.65066 -84.42487 1011 ft 6 kts 92°
2026-05-05 22:38 33.65066 -84.42435 1011 ft 7 kts 89°
2026-05-05 22:38 33.65058 -84.42378 1011 ft 7 kts 114°
2026-05-05 22:38 33.65022 -84.42344 1011 ft 7 kts 160°
2026-05-05 22:39 33.64974 -84.42336 1011 ft 8 kts 176°
2026-05-05 22:39 33.64914 -84.42336 1010 ft 10 kts 180°
2026-05-05 22:39 33.64844 -84.42336 1010 ft 11 kts 180°
2026-05-05 22:39 33.64769 -84.42337 1009 ft 11 kts 180°
2026-05-05 22:40 33.64686 -84.42337 1009 ft 12 kts 180°
2026-05-05 22:40 33.64599 -84.42336 1009 ft 12 kts 176°
2026-05-05 22:40 33.64545 -84.42277 1009 ft 11 kts 113°
2026-05-05 22:40 33.64488 -84.42235 1010 ft 9 kts 171°
2026-05-05 22:41 33.64423 -84.42233 1010 ft 10 kts 180°
2026-05-05 22:41 33.64363 -84.42233 1010 ft 10 kts 180°
2026-05-05 22:41 33.64289 -84.42234 1010 ft 11 kts 182°
2026-05-05 22:41 33.64211 -84.42238 1010 ft 12 kts 181°
2026-05-05 22:42 33.64128 -84.42239 1010 ft 12 kts 180°
2026-05-05 22:42 33.64041 -84.42240 1010 ft 13 kts 180°
2026-05-05 22:42 33.63952 -84.42242 1010 ft 13 kts 181°
2026-05-05 22:42 33.63862 -84.42238 1010 ft 13 kts 174°
2026-05-05 22:43 33.63773 -84.42232 1010 ft 12 kts 180°
2026-05-05 22:43 33.63688 -84.42233 1010 ft 12 kts 180°
2026-05-05 22:43 33.63605 -84.42221 1011 ft 11 kts 147°
2026-05-05 22:43 33.63582 -84.42136 1011 ft 11 kts 90°
2026-05-05 22:44 33.63581 -84.42036 1011 ft 13 kts 90°
2026-05-05 22:44 33.63581 -84.41965 1010 ft 14 kts 90°
2026-05-05 22:44 33.63581 -84.41847 1010 ft 15 kts 90°
2026-05-05 22:44 33.63581 -84.41721 1010 ft 15 kts 90°
2026-05-05 22:45 33.63581 -84.41590 1009 ft 16 kts 90°
2026-05-05 22:45 33.63581 -84.41460 1009 ft 17 kts 90°
2026-05-05 22:45 33.63581 -84.41323 1009 ft 18 kts 90°
2026-05-05 22:45 33.63581 -84.41177 1010 ft 17 kts 90°
2026-05-05 22:46 33.63581 -84.41042 1010 ft 16 kts 90°
2026-05-05 22:46 33.63581 -84.40910 1010 ft 16 kts 89°
2026-05-05 22:46 33.63577 -84.40788 1011 ft 12 kts 107°
2026-05-05 22:46 33.63515 -84.40748 1011 ft 10 kts 188°
2026-05-05 22:47 33.63473 -84.40807 1011 ft 10 kts 258°
2026-05-05 22:47 33.63470 -84.40851 1011 ft 0 kts 269°
2026-05-05 22:48 33.63470 -84.40853 1011 ft 3 kts 269°
2026-05-05 22:48 33.63469 -84.41018 1010 ft 47 kts 269°
2026-05-05 22:48 33.63471 -84.41737 1009 ft 123 kts 270°
2026-05-05 22:48 33.63475 -84.43045 1151 ft 181 kts 277°
2026-05-05 22:49 33.63540 -84.44619 2006 ft 200 kts 273°
2026-05-05 22:49 33.63763 -84.46342 3023 ft 213 kts 271°
2026-05-05 22:49 33.63864 -84.48129 3714 ft 222 kts 269°
2026-05-05 22:49 33.63962 -84.50061 4050 ft 247 kts 269°
2026-05-05 22:50 33.64068 -84.52222 4594 ft 262 kts 269°
2026-05-05 22:50 33.64178 -84.54396 5346 ft 265 kts 269°
2026-05-05 22:50 33.64095 -84.56593 6211 ft 261 kts 255°
2026-05-05 22:50 33.63465 -84.58598 7123 ft 255 kts 237°
2026-05-05 22:51 33.62246 -84.60134 7911 ft 260 kts 212°
2026-05-05 22:51 33.60463 -84.60672 8662 ft 277 kts 181°
2026-05-05 22:51 33.58601 -84.59965 9380 ft 295 kts 153°
2026-05-05 22:51 33.57095 -84.58200 10053 ft 313 kts 129°
2026-05-05 22:52 33.55697 -84.56178 10689 ft 314 kts 145°
2026-05-05 22:52 33.53770 -84.55078 11355 ft 305 kts 176°
2026-05-05 22:52 33.51723 -84.55276 12069 ft 292 kts 207°
2026-05-05 22:52 33.50103 -84.56623 12774 ft 283 kts 231°
2026-05-05 22:53 33.48663 -84.58173 13455 ft 293 kts 216°
2026-05-05 22:53 33.47183 -84.58824 13943 ft 309 kts 194°
2026-05-05 22:53 33.45052 -84.58609 14529 ft 328 kts 167°
2026-05-05 22:53 33.43014 -84.57182 14842 ft 356 kts 140°
2026-05-05 22:54 33.41550 -84.54702 15084 ft 379 kts 114°
2026-05-05 22:54 33.40973 -84.51566 15319 ft 395 kts 90°
2026-05-05 22:54 33.41414 -84.48279 15558 ft 407 kts 67°
2026-05-05 22:54 33.42826 -84.45348 15911 ft 409 kts 46°
2026-05-05 22:55 33.44708 -84.42778 16466 ft 415 kts 49°
2026-05-05 22:55 33.46054 -84.39715 17039 ft 426 kts 67°
2026-05-05 22:55 33.46727 -84.36230 17660 ft 432 kts 78°
2026-05-05 22:55 33.47522 -84.32768 18257 ft 431 kts 62°
2026-05-05 22:56 33.49096 -84.29740 18723 ft 428 kts 47°
2026-05-05 22:56 33.51064 -84.27064 19235 ft 428 kts 43°
2026-05-05 22:56 33.53130 -84.24475 19722 ft 430 kts 41°
2026-05-05 22:56 33.55231 -84.21896 20201 ft 434 kts 41°
2026-05-05 22:57 33.57350 -84.19305 20653 ft 437 kts 41°
2026-05-05 22:57 33.59492 -84.16689 21106 ft 441 kts 40°
2026-05-05 22:57 33.61543 -84.14183 21508 ft 444 kts 40°
2026-05-05 22:57 33.63714 -84.11530 21943 ft 448 kts 40°
2026-05-05 22:58 33.65907 -84.08848 22383 ft 451 kts 40°
2026-05-05 22:58 33.68115 -84.06145 22818 ft 454 kts 40°
2026-05-05 22:58 33.70336 -84.03424 23237 ft 458 kts 39°
2026-05-05 22:58 33.72575 -84.00679 23640 ft 461 kts 39°
2026-05-05 22:59 33.74825 -83.97918 23991 ft 464 kts 39°
2026-05-05 22:59 33.77093 -83.95133 24365 ft 467 kts 39°
2026-05-05 22:59 33.79370 -83.92334 24724 ft 469 kts 39°
2026-05-05 22:59 33.81659 -83.89519 25100 ft 472 kts 39°
2026-05-05 23:00 33.86256 -83.83857 25814 ft 478 kts 39°
2026-05-05 23:00 33.88576 -83.80996 26198 ft 480 kts 39°
2026-05-05 23:00 33.90923 -83.78100 26563 ft 482 kts 39°
2026-05-05 23:01 33.93256 -83.75220 26918 ft 484 kts 39°
2026-05-05 23:01 33.95549 -83.72171 27286 ft 492 kts 44°
2026-05-05 23:01 33.97638 -83.68920 27639 ft 496 kts 46°
2026-05-05 23:01 33.99717 -83.65547 27996 ft 499 kts 47°
2026-05-05 23:02 34.01741 -83.62238 28330 ft 502 kts 47°
2026-05-05 23:02 34.03859 -83.58776 28695 ft 504 kts 46°
2026-05-05 23:02 34.05911 -83.55421 29048 ft 506 kts 46°
2026-05-05 23:02 34.08005 -83.51999 29470 ft 507 kts 47°
2026-05-05 23:03 34.10072 -83.48616 29999 ft 505 kts 47°
2026-05-05 23:03 34.12179 -83.45168 30317 ft 506 kts 46°
2026-05-05 23:03 34.14246 -83.41785 30539 ft 509 kts 46°
2026-05-05 23:03 34.16373 -83.38297 30899 ft 508 kts 46°
2026-05-05 23:04 34.18429 -83.34923 31266 ft 508 kts 46°
2026-05-05 23:04 34.20567 -83.31411 31649 ft 508 kts 45°
2026-05-05 23:04 34.22635 -83.28010 32040 ft 507 kts 45°
2026-05-05 23:04 34.24724 -83.24573 32414 ft 506 kts 45°
2026-05-05 23:05 34.26787 -83.21175 32767 ft 506 kts 45°
2026-05-05 23:05 34.28889 -83.17710 33170 ft 505 kts 44°
2026-05-05 23:05 34.30969 -83.14284 33537 ft 505 kts 44°
2026-05-05 23:05 34.33052 -83.10873 33914 ft 503 kts 44°
2026-05-05 23:06 34.35113 -83.07505 34302 ft 501 kts 43°
2026-05-05 23:06 34.37209 -83.04080 34613 ft 501 kts 43°
2026-05-05 23:06 34.39283 -83.00688 34895 ft 501 kts 43°
2026-05-05 23:06 34.41354 -82.97297 35180 ft 500 kts 43°
2026-05-05 23:07 34.43418 -82.93912 35467 ft 499 kts 43°
2026-05-05 23:07 34.45482 -82.90524 35775 ft 499 kts 43°
2026-05-05 23:07 34.47517 -82.87182 36024 ft 499 kts 43°
2026-05-05 23:07 34.49581 -82.83787 36296 ft 498 kts 43°
2026-05-05 23:08 34.51638 -82.80403 36565 ft 498 kts 43°
2026-05-05 23:08 34.53689 -82.77023 36887 ft 497 kts 43°
2026-05-05 23:08 34.55735 -82.73647 37215 ft 495 kts 43°
2026-05-05 23:08 34.57771 -82.70284 37543 ft 493 kts 43°
2026-05-05 23:09 34.59770 -82.66981 37809 ft 491 kts 43°
2026-05-05 23:09 34.61792 -82.63639 38020 ft 492 kts 43°
2026-05-05 23:09 34.63817 -82.60288 38247 ft 492 kts 43°
2026-05-05 23:09 34.65837 -82.56943 38493 ft 491 kts 43°
2026-05-05 23:10 34.67840 -82.53574 38720 ft 491 kts 43°
2026-05-05 23:10 34.69830 -82.50191 38908 ft 491 kts 43°
2026-05-05 23:10 34.71816 -82.46806 39020 ft 492 kts 43°
2026-05-05 23:10 34.73806 -82.43412 39027 ft 491 kts 43°
2026-05-05 23:11 34.77760 -82.36660 39031 ft 489 kts 43°
2026-05-05 23:11 34.81644 -82.30016 39018 ft 487 kts 43°
2026-05-05 23:12 34.85560 -82.23311 39008 ft 487 kts 43°
2026-05-05 23:12 34.89495 -82.16560 39009 ft 487 kts 43°
2026-05-05 23:13 34.93378 -82.09883 39009 ft 487 kts 43°
2026-05-05 23:13 34.97312 -82.03107 39010 ft 487 kts 43°
2026-05-05 23:14 35.01203 -81.96391 39010 ft 488 kts 43°
2026-05-05 23:14 35.05208 -81.89592 39003 ft 486 kts 41°
2026-05-05 23:15 35.09236 -81.83088 38998 ft 485 kts 41°
2026-05-05 23:15 35.13353 -81.76502 38992 ft 485 kts 41°
2026-05-05 23:16 35.17436 -81.69930 39006 ft 485 kts 41°
2026-05-05 23:16 35.21466 -81.63405 39045 ft 485 kts 41°
2026-05-05 23:17 35.25536 -81.56792 39011 ft 483 kts 41°
2026-05-05 23:17 35.29575 -81.50221 38987 ft 483 kts 41°
2026-05-05 23:18 35.33625 -81.43623 38990 ft 484 kts 41°
2026-05-05 23:18 35.37391 -81.37476 38992 ft 484 kts 41°
2026-05-05 23:19 35.41507 -81.30745 39005 ft 484 kts 41°
2026-05-05 23:19 35.45540 -81.24135 39005 ft 484 kts 41°
2026-05-05 23:20 35.49563 -81.17528 39006 ft 483 kts 41°
2026-05-05 23:20 35.53587 -81.10911 39006 ft 483 kts 41°
2026-05-05 23:21 35.57603 -81.04293 39003 ft 483 kts 41°
2026-05-05 23:21 35.61598 -80.97697 39000 ft 483 kts 41°
2026-05-05 23:22 35.65607 -80.91063 39005 ft 484 kts 42°
2026-05-05 23:22 35.69618 -80.84413 39006 ft 482 kts 42°
2026-05-05 23:23 35.70853 -80.82360 39003 ft 481 kts 42°